• In Uzbekistan
  • List of Countries
  • For 7 days
  • Water Temperature
  • Weather Map
  • Weather Widgets
  • user-avatar
    Login

    Hourly Weather Paro

    Today, 11 December, Wednesday

    Time Temperature Precipitation Wind Pressure Humidity
    00:00 +5°C° 0 mm 0 mps 557 mmHg 96%
    01:00 +5°C° 0.1 mm 0 mps 556 mmHg 96%
    02:00 +4°C° 0.1 mm 0 mps 556 mmHg 96%
    03:00 +5°C° 0.1 mm 1 mps 556 mmHg 96%
    04:00 +4°C° 0.2 mm 0 mps 556 mmHg 96%
    05:00 +4°C° 0.2 mm 0 mps 556 mmHg 96%
    06:00 +4°C° 0.2 mm 0 mps 556 mmHg 96%
    07:00 +4°C° 0.1 mm 0 mps 557 mmHg 91%
    08:00 +6°C° 0.1 mm 1 mps 558 mmHg 87%
    09:00 +7°C° 0.1 mm 1 mps 558 mmHg 82%
    10:00 +7°C° 0.1 mm 1 mps 558 mmHg 82%
    11:00 +7°C° 0.1 mm 2 mps 558 mmHg 82%
    12:00 +7°C° 0.1 mm 2 mps 558 mmHg 82%
    13:00 +7°C° 0.1 mm 2 mps 557 mmHg 82%
    14:00 +7°C° 0.1 mm 2 mps 557 mmHg 83%
    15:00 +8°C° 0.1 mm 1 mps 556 mmHg 83%
    16:00 +7°C° 0.1 mm 1 mps 556 mmHg 88%
    17:00 +6°C° 0.1 mm 1 mps 556 mmHg 93%
    18:00 +5°C° 0.1 mm 1 mps 555 mmHg 98%
    19:00 +5°C° 0.1 mm 1 mps 556 mmHg 97%
    20:00 +4°C° 0.1 mm 0 mps 556 mmHg 95%
    21:00 +4°C° 0.1 mm 0 mps 556 mmHg 94%
    22:00 +3°C° 0 mm 0 mps 556 mmHg 94%
    23:00 +3°C° 0 mm 0 mps 556 mmHg 93%

    Tomorrow, 12 December, Thursday

    Time Temperature Precipitation Wind Pressure Humidity
    00:00 +3°C° 0 mm 1 mps 556 mmHg 92%
    01:00 +3°C° 0 mm 1 mps 555 mmHg 91%
    02:00 +3°C° 0 mm 1 mps 555 mmHg 90%
    03:00 +2°C° 0 mm 1 mps 555 mmHg 88%
    04:00 +2°C° 0 mm 1 mps 555 mmHg 86%
    05:00 +2°C° 0 mm 1 mps 555 mmHg 84%
    06:00 +2°C° 0 mm 1 mps 555 mmHg 82%
    07:00 +4°C° 0 mm 1 mps 557 mmHg 77%
    08:00 +6°C° 0 mm 1 mps 558 mmHg 72%
    09:00 +8°C° 0 mm 1 mps 560 mmHg 66%
    10:00 +9°C° 0 mm 1 mps 560 mmHg 67%
    11:00 +8°C° 0 mm 2 mps 560 mmHg 67%
    12:00 +9°C° 0 mm 2 mps 560 mmHg 67%
    13:00 +9°C° 0 mm 2 mps 559 mmHg 69%
    14:00 +8°C° 0 mm 2 mps 559 mmHg 71%
    15:00 +8°C° 0 mm 2 mps 558 mmHg 73%
    16:00 +7°C° 0 mm 1 mps 558 mmHg 80%
    17:00 +6°C° 0 mm 1 mps 557 mmHg 87%
    18:00 +3°C° 0 mm 0 mps 557 mmHg 94%
    19:00 +4°C° 0 mm 1 mps 557 mmHg 91%
    20:00 +4°C° 0 mm 1 mps 557 mmHg 88%
    21:00 +3°C° 0 mm 1 mps 557 mmHg 85%
    22:00 +3°C° 0 mm 1 mps 557 mmHg 83%
    23:00 +3°C° 0 mm 1 mps 557 mmHg 81%

    Day after tomorrow, 13 December, Friday

    Time Temperature Precipitation Wind Pressure Humidity
    00:00 +3°C° 0 mm 1 mps 557 mmHg 79%
    01:00 +3°C° 0 mm 1 mps 557 mmHg 78%
    02:00 +3°C° 0 mm 1 mps 557 mmHg 77%
    03:00 +3°C° 0 mm 1 mps 557 mmHg 76%
    04:00 +3°C° 0 mm 1 mps 557 mmHg 75%
    05:00 +3°C° 0 mm 1 mps 557 mmHg 74%
    06:00 +2°C° 0 mm 1 mps 556 mmHg 73%
    07:00 +5°C° 0 mm 1 mps 558 mmHg 66%
    08:00 +7°C° 0 mm 1 mps 560 mmHg 58%
    09:00 +9°C° 0 mm 1 mps 562 mmHg 51%
    10:00 +10°C° 0 mm 1 mps 562 mmHg 50%
    11:00 +10°C° 0 mm 2 mps 562 mmHg 49%
    12:00 +10°C° 0 mm 2 mps 562 mmHg 48%
    13:00 +9°C° 0.2 mm 2 mps 561 mmHg 58%
    14:00 +8°C° 0.2 mm 2 mps 560 mmHg 69%
    15:00 +7°C° 0.2 mm 2 mps 559 mmHg 80%
    16:00 +7°C° 0.4 mm 1 mps 559 mmHg 84%
    17:00 +6°C° 0.4 mm 1 mps 559 mmHg 89%
    18:00 +5°C° 0.4 mm 1 mps 559 mmHg 94%
    19:00 +4°C° 0.6 mm 0 mps 559 mmHg 94%
    20:00 +3°C° 0.6 mm 0 mps 559 mmHg 95%
    21:00 +3°C° 0.6 mm 0 mps 559 mmHg 95%
    22:00 +3°C° 0.4 mm 0 mps 559 mmHg 96%
    23:00 +2°C° 0.4 mm 0 mps 559 mmHg 96%

    14 December, Saturday

    Time Temperature Precipitation Wind Pressure Humidity
    00:00 +2°C° 0.4 mm 0 mps 559 mmHg 96%
    01:00 +2°C° 0.2 mm 0 mps 558 mmHg 96%
    02:00 +3°C° 0.2 mm 1 mps 558 mmHg 96%
    03:00 +2°C° 0.2 mm 1 mps 557 mmHg 96%
    04:00 +2°C° 0.1 mm 1 mps 557 mmHg 96%
    05:00 +2°C° 0.1 mm 1 mps 557 mmHg 96%
    06:00 +1°C° 0.1 mm 0 mps 557 mmHg 96%
    07:00 +3°C° 0.1 mm 1 mps 558 mmHg 93%
    08:00 +4°C° 0.1 mm 1 mps 559 mmHg 90%
    09:00 +6°C° 0.1 mm 1 mps 561 mmHg 87%
    10:00 +6°C° 0.2 mm 1 mps 560 mmHg 85%
    11:00 +6°C° 0.2 mm 2 mps 560 mmHg 83%
    12:00 +7°C° 0.2 mm 2 mps 560 mmHg 81%
    13:00 +7°C° 0.2 mm 2 mps 560 mmHg 81%
    14:00 +7°C° 0.2 mm 2 mps 559 mmHg 81%
    15:00 +7°C° 0.2 mm 2 mps 559 mmHg 82%
    16:00 +6°C° 0.1 mm 1 mps 558 mmHg 86%
    17:00 +4°C° 0.1 mm 1 mps 557 mmHg 91%
    18:00 +2°C° 0.1 mm 0 mps 557 mmHg 96%
    19:00 +2°C° 0 mm 1 mps 557 mmHg 94%
    20:00 +2°C° 0 mm 1 mps 557 mmHg 91%
    21:00 -1°C° 0 mm 2 mps 557 mmHg 89%
    22:00 -1°C° 0 mm 2 mps 557 mmHg 88%
    23:00 -1°C° 0 mm 2 mps 557 mmHg 87%

    15 December, Sunday

    Time Temperature Precipitation Wind Pressure Humidity
    00:00 -2°C° 0 mm 2 mps 556 mmHg 86%
    01:00 -2°C° 0 mm 2 mps 556 mmHg 85%
    02:00 -2°C° 0 mm 2 mps 556 mmHg 84%
    03:00 -2°C° 0 mm 2 mps 556 mmHg 83%
    04:00 -2°C° 0 mm 2 mps 556 mmHg 83%
    05:00 -3°C° 0 mm 2 mps 556 mmHg 82%
    06:00 -3°C° 0 mm 2 mps 556 mmHg 81%
    07:00 +2°C° 0 mm 1 mps 557 mmHg 75%
    08:00 +4°C° 0 mm 1 mps 559 mmHg 68%
    09:00 +6°C° 0 mm 0 mps 561 mmHg 62%
    10:00 +8°C° 0 mm 1 mps 561 mmHg 61%
    11:00 +9°C° 0 mm 1 mps 561 mmHg 61%
    12:00 +9°C° 0 mm 2 mps 561 mmHg 60%
    13:00 +8°C° 0.1 mm 2 mps 560 mmHg 65%
    14:00 +8°C° 0.1 mm 2 mps 560 mmHg 71%
    15:00 +7°C° 0.1 mm 2 mps 559 mmHg 77%
    16:00 +7°C° 0.1 mm 1 mps 558 mmHg 83%
    17:00 +5°C° 0.1 mm 1 mps 557 mmHg 90%
    18:00 +2°C° 0.1 mm 0 mps 557 mmHg 97%
    19:00 +2°C° 0.1 mm 0 mps 557 mmHg 96%
    20:00 +3°C° 0.1 mm 1 mps 557 mmHg 96%
    21:00 +3°C° 0.1 mm 1 mps 558 mmHg 95%
    22:00 +2°C° 0 mm 1 mps 557 mmHg 94%
    23:00 +2°C° 0 mm 1 mps 557 mmHg 93%

    16 December, Monday

    Time Temperature Precipitation Wind Pressure Humidity
    00:00 +1°C° 0 mm 1 mps 556 mmHg 93%
    01:00 +1°C° 0 mm 1 mps 556 mmHg 93%
    02:00 +1°C° 0 mm 1 mps 556 mmHg 93%
    03:00 +1°C° 0 mm 1 mps 555 mmHg 94%
    04:00 0°C° 0 mm 1 mps 555 mmHg 93%
    05:00 0°C° 0 mm 1 mps 555 mmHg 93%
    06:00 0°C° 0 mm 1 mps 555 mmHg 92%
    07:00 +2°C° 0 mm 1 mps 557 mmHg 86%
    08:00 +4°C° 0 mm 1 mps 558 mmHg 79%
    09:00 +5°C° 0 mm 0 mps 560 mmHg 73%
    10:00 +7°C° 0.1 mm 1 mps 560 mmHg 72%
    11:00 +8°C° 0.1 mm 1 mps 560 mmHg 71%
    12:00 +8°C° 0.1 mm 2 mps 560 mmHg 70%
    13:00 +7°C° 0.2 mm 2 mps 559 mmHg 73%
    14:00 +7°C° 0.2 mm 2 mps 559 mmHg 76%
    15:00 +7°C° 0.2 mm 2 mps 558 mmHg 79%
    16:00 +6°C° 0.1 mm 1 mps 558 mmHg 85%
    17:00 +4°C° 0.1 mm 1 mps 557 mmHg 91%
    18:00 +3°C° 0.1 mm 1 mps 556 mmHg 96%
    19:00 +2°C° 0.1 mm 1 mps 557 mmHg 94%
    20:00 +1°C° 0.1 mm 1 mps 557 mmHg 92%
    21:00 +1°C° 0.1 mm 1 mps 557 mmHg 90%
    22:00 +1°C° 0 mm 1 mps 556 mmHg 90%
    23:00 0°C° 0 mm 1 mps 556 mmHg 89%
    Show more